Flag for USA Past Weather in Bryan – College Station, Texas, USA — Yesterday and Last 2 Weeks

Now
79 °F

Sunny.


Feels Like: 82 °F
Forecast: 75 / 94 °F
Wind: 6 mph from Northeast

Location: Easterwood Field

Current Time: Jun 30, 2016 at 9:07:11 AM

Latest Report: Jun 30, 2016 at 7:53 AM


Visibility: 10 mi

Pressure: 29.97 "Hg

Humidity: 82%

Dew Point: 73 °F

Location of Bryan – College StationLocation

Past Weather in Bryan – College Station — Graph

°F

Bryan – College Station Temperature Yesterday

Maximum temperature yesterday: 93 °F (at 2:53 PM)
Minimum temperature yesterday: 72 °F (at 12:53 AM)
Average temperature yesterday: 82 °F

High & Low Weather Summary for the Past Weeks

 TemperatureHumidityPressure
High95 °F (Jun 20, 3:53 PM)100% (Jun 17, 4:53 AM)30.21 "Hg (Jun 17, 4:53 AM)
Low72 °F (Jun 29, 12:53 AM)41% (Jun 20, 3:53 PM)29.88 "Hg (Jun 17, 6:53 PM)
Average83 °F74%30.02 "Hg
* Reported Jun 15 7:53 AM — Jun 30 7:53 AM, Bryan – College Station, Weather by CustomWeather, © 2016

Note: Actual official high and low records may vary slightly from our data, if they occured in-between our weather recording intervals... More about our weather records

Advertising

Bryan – College Station Weather History for the Previous 24 Hours

Scroll right to see more
 ConditionsComfort  
Time TempWeatherWind HumidityBarometerVisibility
7:53 AM
Thu, Jun 30
79 °FSunny.6 mph82%29.97 "Hg10 mi
6:53 AM77 °FClear.6 mph88%29.96 "Hg10 mi
5:53 AM76 °FClear.5 mph91%29.95 "Hg10 mi
4:53 AM76 °FClear.3 mph91%29.95 "Hg10 mi
3:53 AM77 °FClear.No wind88%29.94 "Hg10 mi
2:53 AM78 °FClear.3 mph84%29.93 "Hg10 mi
1:53 AM79 °FClear.3 mph82%29.94 "Hg10 mi
12:53 AM80 °FClear.3 mph79%29.94 "Hg10 mi
11:53 PM
Wed, Jun 29
81 °FClear.5 mph77%29.95 "Hg10 mi
10:53 PM83 °FClear.5 mph70%29.96 "Hg10 mi
9:53 PM84 °FClear.7 mph70%29.93 "Hg10 mi
8:53 PM86 °FSunny.8 mph63%29.93 "Hg10 mi
7:53 PM88 °FSunny.10 mph59%29.91 "Hg10 mi
6:53 PM90 °FSunny.10 mph54%29.90 "Hg10 mi
5:53 PM92 °FPassing clouds.13 mph51%29.90 "Hg10 mi
4:53 PM93 °FPassing clouds.10 mph49%29.91 "Hg10 mi
3:53 PM93 °FSunny.9 mph52%29.93 "Hg10 mi
2:53 PM93 °FPassing clouds.12 mph52%29.94 "Hg10 mi
1:53 PM90 °FScattered clouds.10 mph56%29.96 "Hg10 mi
12:53 PM90 °FScattered clouds.8 mph57%29.97 "Hg10 mi
11:53 AM88 °FScattered clouds.7 mph63%29.99 "Hg10 mi
11:00 AM85 °FBroken clouds.8 mph72%30.01 "Hg10 mi
9:53 AM82 °FSunny.5 mph79%30.01 "Hg10 mi
Weather by CustomWeather, © 2016

See weather overviewHow to use our weather pages